Lid_Strength_Index
5 5 4 4 4 3 3 3 3 2 2 2 2 2 2 1 1 1 1 2 2 1 1 2 1 1 2 3 3 2 1 2 1
5 5 5 4 3 3 3 3 3 2 2 2 2 2 1 1 1 1 1 2 2 2 2 2 1 1 2 2 2 1 1 2 2
5 5 5 4 4 3 3 2 2 2 2 2 2 2 1 1 1 1 1 1 1 2 2 2 1 1 2 2 3 1 1 2 2
5 5 4 4 4 3 3 2 2 2 2 2 2 2 2 1 1 1 1 1 1 1 2 2 1 1 1 2 2 2 1 2 2
5 5 5 4 3 3 3 3 3 3 2 2 2 2 2 2 1 1 1 1 1 2 2 2 1 1 1 2 2 2 1 2 2
6 6 6 4 4 4 3 3 3 3 3 2 2 2 2 2 2 2 2 1 1 2 2 2 2 1 1 2 2 2 2 1 2
6 5 5 4 4 4 3 3 3 3 3 2 2 2 2 2 2 2 1 1 1 1 1 2 2 2 1 1 2 2 1 1 2
6 6 5 4 4 4 4 3 3 3 3 2 2 2 2 2 2 1 1 1 1 1 1 2 2 2 2 2 2 2 2 2 2
7 6 5 4 4 4 4 3 3 3 3 3 2 2 3 2 2 2 2 2 1 1 1 1 2 2 2 3 2 3 3 2 2
7 7 5 5 4 4 3 3 3 3 3 2 2 3 2 2 2 2 2 2 2 2 2 1 2 3 4 4 3 5 5 4 3
7 6 5 5 4 3 3 3 3 2 2 2 3 3 3 2 2 2 2 2 2 2 2 2 2 2 3 3 3 7 7 5 3
7 6 6 4 3 3 3 3 2 3 3 3 3 3 3 2 2 2 2 2 2 2 2 2 2 1 3 3 3 8 8 6 4
6 5 5 6 3 3 3 3 2 3 3 3 3 3 3 2 2 2 3 2 2 2 2 2 2 2 2 5 3 10 10 6 5
5 5 4 6 6 5 3 3 3 3 3 3 2 2 2 2 2 2 2 2 2 2 2 2 2 2 3 4 5 9 11 9 5
6 5 4 4 7 5 4 3 3 3 3 2 2 2 2 2 2 2 2 2 2 2 2 2 3 5 5 5 5 9 11 9 7
5 5 5 4 6 6 5 3 3 3 3 2 2 2 3 3 2 2 2 2 2 3 3 3 4 4 5 5 4 5 9 9 8
6 5 5 4 4 5 5 4 3 3 2 2 3 3 3 3 3 3 2 2 2 3 3 4 4 4 5 4 4 3 5 6 7
5 5 4 4 5 4 4 3 3 3 3 2 3 3 3 3 3 3 6 10 6 4 6 5 4 5 4 3 4 4 6 6 6
7 5 4 5 5 5 4 4 3 3 2 2 3 4 4 5 7 8 9 9 11 14 12 12 12 10 6 7 8 10 12 13 12
7 5 4 4 4 4 4 5 5 3 3 3 3 5 6 7 7 6 6 6 6 9 11 14 14 12 11 9 9 12 12 12 12